Theta_e
312 312 312 312 312 312 312 312 312 313 313 313 314 315 316 319 318 311 305 310 313 321 320 308 307 308 310 307 307 310 297 293 296 296 299 306 304 307 309 308 315 320 319 323 327
310 310 310 310 311 311 312 313 313 313 313 313 313 314 316 318 310 305 315 319 320 320 308 303 302 305 302 303 304 302 298 297 301 301 302 306 305 304 306 308 313 317 323 327 322
310 310 311 311 312 312 312 312 312 313 313 313 313 314 316 316 304 303 315 316 318 318 309 306 305 305 300 302 301 303 297 302 303 306 307 307 306 308 305 301 312 315 320 322 320
311 311 311 311 311 311 312 312 312 313 313 313 314 314 317 308 290 304 314 315 317 316 309 305 304 299 297 296 301 296 302 306 304 306 306 305 306 303 306 305 311 322 324 322 320
311 311 311 311 311 311 312 312 312 313 313 314 315 315 308 297 298 307 317 313 310 311 306 303 300 299 295 298 299 297 300 306 306 305 304 307 304 303 303 306 318 323 324 322 322
311 311 310 310 311 311 312 312 312 313 314 315 316 315 305 294 308 310 311 311 307 307 305 305 302 302 298 299 298 301 302 304 307 306 303 304 303 304 304 313 320 321 321 322 323
311 310 310 310 311 311 311 311 312 313 314 315 317 312 302 298 308 309 311 308 308 307 303 307 307 302 300 297 302 301 298 302 306 304 303 305 301 301 308 318 318 317 318 320 321
310 310 310 310 310 311 311 312 313 314 315 315 315 309 296 309 309 309 309 307 311 310 306 309 309 303 302 303 301 298 297 294 302 303 304 301 294 302 308 313 313 314 314 317 320
310 310 310 310 310 310 311 313 314 314 314 315 306 300 296 309 301 306 307 303 305 310 308 310 307 301 301 296 293 294 290 293 297 304 302 299 294 300 306 307 309 311 314 316 317
310 310 310 310 310 310 312 311 313 309 308 310 307 294 299 296 302 306 307 305 302 305 303 303 298 292 295 291 285 287 289 293 294 298 300 298 296 299 301 305 306 308 313 316 317
309 309 309 310 310 310 305 298 292 291 296 293 294 295 298 302 306 303 306 304 303 301 293 298 290 285 291 293 293 292 292 291 293 297 297 297 297 299 299 299 302 304 308 313 318
309 309 309 310 309 309 300 294 294 297 288 297 298 299 301 303 297 300 306 297 295 288 292 291 288 293 296 295 294 292 288 288 293 296 296 296 295 299 299 296 301 304 309 312 312
308 309 309 309 309 300 296 296 302 304 290 293 298 298 298 301 296 296 301 297 292 288 288 289 291 296 293 293 290 290 288 288 289 293 295 294 292 295 294 294 296 296 296 300 304
308 308 309 308 299 297 294 300 301 304 277 285 291 296 298 299 294 302 302 297 293 288 288 287 295 292 290 290 292 287 292 291 290 288 284 291 283 287 292 289 291 292 294 295 298
308 308 309 307 293 294 297 301 300 295 266 286 291 300 299 294 295 295 301 297 290 290 287 284 289 288 287 289 292 288 293 291 290 288 286 285 283 286 291 287 289 289 291 293 294
307 307 306 301 297 299 301 300 296 277 268 283 290 288 289 291 294 296 294 298 297 290 288 287 292 290 288 293 293 294 291 290 289 287 280 285 284 284 285 287 289 289 290 292 295
306 307 302 301 294 301 299 293 274 270 281 279 282 287 287 286 290 292 289 289 287 279 281 286 286 290 291 287 290 290 285 275 277 279 279 286 284 283 288 290 289 290 292 292 295
306 306 303 301 301 299 294 280 267 270 275 286 285 286 283 286 286 289 287 285 290 287 283 279 276 286 291 287 285 286 284 274 270 275 277 285 282 285 291 291 292 293 293 295 296
306 298 298 300 301 297 286 271 271 274 284 284 285 280 275 287 287 285 285 285 288 290 285 282 280 288 289 290 288 286 282 287 279 275 276 280 282 288 290 290 291 292 293 294 295
296 295 295 301 299 293 279 277 276 285 285 285 279 281 274 277 283 282 283 285 287 291 292 287 280 287 288 289 289 286 288 279 278 268 271 278 277 280 285 287 289 290 291 293 295
294 287 296 301 296 286 275 277 282 286 287 283 278 280 281 281 279 282 283 286 287 289 292 287 286 284 286 284 283 284 283 284 283 280 276 274 276 285 287 288 289 290 291 291 292
290 276 295 297 280 279 277 278 285 284 287 285 284 283 281 282 281 279 282 285 292 292 285 288 286 281 280 287 289 286 284 285 277 277 279 279 277 288 288 289 290 290 291 292 292
283 283 296 293 274 278 279 279 282 284 284 284 283 285 286 282 277 282 285 289 290 290 287 289 282 272 274 282 286 284 286 286 284 282 278 275 277 288 289 288 290 289 290 292 292
284 279 284 287 285 280 277 277 276 284 284 285 284 285 283 281 282 281 282 286 288 289 293 290 284 278 272 277 282 280 283 285 283 275 279 280 280 284 288 287 288 288 289 291 291
282 278 284 279 281 282 281 280 278 278 282 283 282 283 282 277 279 280 281 284 287 290 287 286 272 278 280 280 282 281 282 283 282 281 277 280 280 285 288 285 285 286 288 289 289
284 282 285 281 283 282 282 279 279 280 281 280 278 282 282 278 280 278 281 281 282 284 283 284 270 276 273 279 279 278 280 280 281 283 282 283 282 288 287 285 283 286 288 288 288
289 289 285 283 281 281 279 281 281 282 282 283 282 281 281 282 285 285 285 285 284 282 282 279 271 265 265 274 272 266 274 279 279 282 283 279 283 285 282 284 284 285 287 287 288
Wind_Speed
9 10 10 11 12 12 13 13 14 15 15 16 17 17 17 17 16 3 4 7 6 11 9 6 5 6 5 4 4 2 5 12 16 10 6 2 4 4 2 7 3 4 5 7 15
8 9 10 11 12 13 14 15 15 16 16 16 17 18 18 17 3 3 6 7 7 9 4 3 5 5 4 3 4 6 11 13 5 5 5 4 5 4 5 5 4 3 5 16 18
9 9 10 12 13 14 15 16 16 16 16 17 17 17 18 12 3 2 4 6 5 7 3 1 1 2 3 2 3 4 15 11 7 5 5 5 6 7 8 3 8 12 15 17 17
9 10 11 12 14 15 16 16 17 17 17 17 17 15 16 3 3 1 4 6 5 4 2 3 3 3 5 6 2 9 14 11 4 2 4 3 7 7 10 8 9 16 22 17 17
10 11 12 13 14 16 17 18 18 18 18 17 14 10 5 4 5 4 10 7 3 1 3 5 6 4 7 4 5 11 18 19 4 2 5 6 6 7 8 0 12 12 16 18 16
10 11 12 13 15 16 18 18 19 18 16 14 9 5 3 3 2 6 8 8 5 2 2 4 4 7 8 5 9 5 15 12 5 4 5 3 5 2 2 7 13 16 15 15 17
9 10 12 13 15 17 18 20 19 17 14 11 9 2 2 8 3 7 7 3 2 4 5 6 7 7 7 8 7 12 16 8 7 4 4 7 6 4 4 8 14 10 9 11 10
9 10 12 14 16 18 20 20 20 18 12 8 4 2 5 3 5 7 5 5 4 3 3 11 10 12 7 2 5 8 7 10 6 10 5 10 5 2 6 8 10 9 8 8 8
8 10 12 15 17 19 21 22 18 10 6 6 2 1 6 5 6 6 2 3 3 2 9 13 5 3 3 3 6 1 8 13 5 7 7 4 4 6 4 7 7 8 9 9 8
7 9 12 14 17 20 21 18 6 5 4 2 2 2 3 6 5 7 4 5 5 2 5 0 3 3 3 2 3 4 8 7 3 2 2 7 7 12 8 6 7 7 8 10 11
6 9 12 14 16 19 12 5 7 5 7 1 5 4 4 8 4 5 5 6 2 2 3 3 4 6 8 6 7 7 11 13 5 5 3 11 2 10 11 1 5 5 7 9 12
5 8 10 13 15 15 4 5 1 2 5 3 6 4 4 2 4 8 6 5 4 4 5 3 7 9 4 5 10 11 12 5 4 3 6 2 5 5 18 5 6 8 2 5 3
5 7 9 11 13 4 5 3 2 2 2 5 3 3 6 2 4 6 7 3 3 4 5 5 2 5 2 6 11 9 6 9 7 2 5 4 2 4 18 12 10 10 6 8 6
4 6 8 13 3 3 2 5 4 2 5 5 3 3 4 2 3 3 3 2 5 4 4 4 2 1 4 1 6 5 5 3 10 6 4 2 3 4 11 6 8 8 10 8 7
4 4 6 5 1 2 2 5 4 3 4 4 4 3 4 1 5 4 2 4 2 4 2 2 1 4 3 0 1 3 3 3 5 7 7 5 2 2 7 7 5 7 8 8 7
3 3 4 3 1 1 3 3 3 7 5 2 4 5 4 5 1 5 4 2 2 3 2 1 2 1 3 5 3 2 3 7 5 4 4 1 2 4 3 7 8 6 8 7 8
2 1 1 1 2 2 2 3 7 5 4 3 1 3 1 4 4 4 4 6 4 5 6 6 4 4 3 4 4 4 3 3 4 2 1 4 7 1 6 6 4 6 7 7 6
4 3 0 2 1 3 3 6 3 2 5 2 2 1 1 3 3 5 3 3 6 3 2 2 6 5 6 1 2 3 3 4 6 3 3 3 3 3 4 3 4 2 2 5 7
7 1 0 1 1 2 5 4 8 6 4 4 2 3 5 0 1 4 4 2 4 6 2 3 2 1 1 3 2 4 2 2 6 3 4 3 2 3 3 2 4 6 6 7 6
3 2 1 2 3 4 5 5 3 2 2 1 5 4 4 2 1 3 2 2 2 3 3 2 2 2 2 3 1 2 2 4 4 3 4 2 1 6 2 0 3 5 5 5 5
2 4 1 2 3 4 4 5 3 3 1 3 3 2 2 4 4 2 3 3 1 2 3 2 1 3 3 4 2 5 4 4 4 2 2 5 2 4 5 4 4 4 5 5 5
4 2 2 2 4 1 3 3 3 2 1 2 3 2 2 1 3 2 4 2 4 2 1 3 2 1 2 4 3 2 3 2 4 4 2 2 2 6 4 2 3 3 5 5 5
4 3 1 3 4 2 1 2 2 3 3 3 4 3 2 2 3 4 4 2 3 2 2 2 1 2 8 7 5 5 4 2 4 2 2 3 4 5 4 2 4 5 6 6 7
4 4 1 3 1 5 4 3 2 1 2 3 3 2 2 1 1 3 2 1 1 2 4 4 2 3 5 2 1 2 3 4 3 3 1 2 2 4 6 7 6 6 6 6 7
2 5 5 5 5 6 5 6 5 4 1 2 2 3 4 3 1 2 3 1 2 2 2 3 3 1 3 4 2 1 1 1 2 2 5 4 2 4 3 2 2 2 3 6 6
6 5 1 3 4 8 9 8 10 4 6 4 3 7 4 3 5 6 3 1 2 3 2 2 1 2 4 5 5 3 4 3 0 2 4 3 6 4 3 2 2 3 5 6 5
3 0 6 6 4 6 6 7 11 8 5 4 6 5 5 5 4 4 3 4 3 2 2 3 4 4 4 5 5 6 5 4 2 3 5 4 6 3 3 5 1 3 5 5 6
Wind_Direction
8 2 357 353 349 345 344 341 341 338 333 329 328 325 324 328 330 305 306 249 306 323 325 318 340 331 269 240 245 250 203 218 214 187 227 243 238 161 65 113 63 358 159 167 141
8 359 353 349 346 341 341 339 336 332 329 327 324 324 324 329 276 291 319 268 308 322 322 340 307 334 280 241 239 220 220 224 205 204 215 264 231 196 121 132 38 44 43 133 135
359 355 351 346 341 338 336 334 329 325 325 324 321 325 321 328 268 231 302 327 328 328 318 309 268 268 241 296 242 256 239 216 201 221 240 258 279 169 140 213 201 173 149 150 149
348 347 343 341 337 335 331 328 325 322 324 319 318 322 319 309 335 18 323 318 310 334 355 283 280 240 229 209 221 270 252 235 180 303 292 228 301 180 174 212 154 165 158 156 165
339 342 342 340 336 332 328 325 322 321 321 319 317 321 355 354 264 341 331 304 290 94 217 250 235 249 239 201 229 275 257 230 154 208 273 272 263 211 202 280 124 142 160 165 171
333 336 339 336 331 328 323 320 318 317 317 315 313 312 242 296 313 312 308 305 231 189 289 308 262 244 276 207 189 308 254 253 197 196 318 273 273 287 175 112 130 151 171 175 176
324 329 332 331 328 323 320 317 313 312 312 305 313 232 278 241 303 303 280 268 158 63 317 305 281 255 212 196 182 258 243 220 237 145 294 307 261 220 122 138 142 154 166 174 186
318 328 330 328 325 322 318 315 312 304 300 285 295 254 257 263 301 296 320 332 121 118 252 269 233 245 279 199 169 220 166 205 141 149 340 326 246 253 127 136 152 149 162 174 196
316 326 329 329 327 324 320 314 305 290 274 270 289 118 289 318 339 301 264 264 248 140 272 243 248 276 248 174 222 287 158 184 119 214 135 307 276 349 277 172 168 168 172 178 190
315 323 329 329 329 327 324 319 320 350 16 157 264 353 341 307 299 299 271 255 243 259 296 41 313 356 229 246 203 140 120 95 118 68 294 176 289 340 354 163 184 177 182 185 189
312 324 327 329 332 331 341 11 17 347 35 91 281 254 258 290 292 291 304 319 256 209 305 68 16 21 83 134 112 103 111 98 56 1 77 216 280 314 335 310 150 177 208 198 197
312 320 326 326 333 334 24 66 111 274 324 307 261 262 269 298 302 309 1 22 2 316 319 62 24 359 30 129 136 105 101 65 67 11 53 354 197 307 315 314 47 12 304 269 231
310 322 323 325 325 33 78 64 289 231 276 304 258 287 284 352 302 295 1 332 356 345 16 50 70 37 88 39 87 63 102 137 116 54 40 93 296 357 335 11 38 37 22 26 348
303 325 324 331 60 332 49 324 338 270 69 300 319 284 322 289 287 254 305 331 350 339 343 33 2 0 44 71 336 72 321 89 129 141 114 339 152 79 312 57 6 28 25 15 13
297 324 328 6 210 87 311 327 314 62 31 280 306 280 279 44 285 320 287 339 360 311 36 292 218 318 323 206 244 205 305 26 83 92 114 6 87 45 324 8 351 5 14 4 12
276 311 350 82 52 126 326 326 51 37 258 337 340 332 358 1 328 297 358 5 289 346 11 41 162 204 310 6 346 45 14 33 57 44 66 182 91 44 2 294 316 352 1 355 355
212 159 64 131 203 327 1 54 35 138 319 288 286 324 350 352 336 2 11 22 19 46 359 5 347 342 60 14 348 6 40 31 39 56 127 200 81 210 223 247 281 326 344 7 4
173 141 334 155 334 26 68 54 119 241 228 267 242 264 153 4 356 333 59 30 33 8 54 18 350 9 347 3 310 244 179 162 153 156 123 355 116 197 239 315 347 2 346 7 2
130 76 33 203 104 73 76 82 212 204 198 176 68 83 321 138 206 50 50 359 355 352 72 356 338 321 36 336 15 299 320 213 107 28 85 155 88 129 247 21 25 21 18 356 349
120 129 208 141 99 74 77 242 235 247 159 41 169 166 170 274 131 84 333 166 325 2 339 24 320 344 298 358 297 194 284 6 7 90 87 98 103 145 161 91 347 25 27 2 339
93 94 263 133 89 59 167 235 239 259 226 149 195 159 159 147 146 130 217 273 150 293 298 2 343 326 36 39 345 344 360 28 100 84 145 126 251 173 159 180 83 21 12 355 352
129 91 240 157 77 121 170 191 291 193 349 287 140 184 189 138 115 168 180 283 110 41 116 320 76 59 311 294 288 253 332 78 98 301 360 85 200 142 127 335 132 65 18 8 4
137 141 341 98 146 203 73 310 280 172 226 213 210 210 209 166 111 164 144 165 156 148 199 188 14 21 350 353 3 43 354 48 101 66 350 91 215 144 107 6 6 42 34 26 20
117 127 2 57 123 136 148 192 238 259 263 254 224 166 116 159 212 147 100 199 146 111 141 73 43 150 175 211 268 12 34 17 75 92 199 222 79 172 354 357 30 34 22 26 24
120 212 182 174 205 163 163 156 149 199 213 305 258 218 165 151 133 158 144 88 1 165 114 108 117 52 35 5 16 324 303 55 156 175 144 260 211 246 310 342 69 54 66 64 27
150 150 84 148 136 153 176 199 179 184 161 219 178 191 193 161 184 193 150 132 160 346 90 31 170 83 350 354 15 300 279 264 57 268 281 276 286 260 298 16 30 22 88 61 30
179 337 109 164 160 177 190 187 184 149 227 212 181 136 165 171 125 109 79 95 106 117 85 65 116 71 264 343 349 349 220 212 172 188 159 179 235 348 326 331 62 81 57 35 12